, AK

(GMT )
Tin City

Weather History for PATC - March, 2013

Change the Weather History Date:

Monday, March 4, 2013

  Actual Average Record
Temperature  
Mean Temperature 24 °F -  
Max Temperature 32 °F 8 °F 32 °F (2013)
Min Temperature 16 °F 0 °F -20 °F (2012)
Degree Days  
Heating Degree Days 41    
Moisture  
Dew Point 23 °F    
Average Humidity 80    
Maximum Humidity 100    
Minimum Humidity 64    
Precipitation  
Precipitation 0.00 in - - ()
Sea Level Pressure  
Sea Level Pressure 29.89 in    
Wind  
Wind Speed 21 mph (SSE)    
Max Wind Speed 37 mph    
Max Gust Speed 45 mph    
Visibility 8 miles    
Events Rain , Snow    
Averages and records for this station are not official NWS values.
T = Trace of Precipitation, MM = Missing Value Source: NWS Daily Summary

Daily Weather History Graph

Daily Weather History Graph

Search for Another Location

Airport or City:

Astronomy

Mar. 04, 2013 Rise Set
Actual Time 9:09 AM AKST 7:38 PM AKST
Civil Twilight 8:19 AM AKST 8:28 PM AKST
Nautical Twilight 7:21 AM AKST 9:27 PM AKST
Astronomical Twilight 6:20 AM AKST 10:28 PM AKST
Moon 5:34 AM AKST (3/4) 10:28 AM AKST (3/4)
Length of Visible Light 12h 08m
Length of Day
10h 28m
Waning Gibbous, 50% of the Moon is Illuminated
Mar 4
Waning Gibbous
Mar 4
Last Quarter
Mar 11
New
Mar 19
First Quarter
Mar 27
Full

Hourly Weather History & Observations

Time (AKST) Temp. Windchill Dew Point Humidity Pressure Visibility Wind Dir Wind Speed Gust Speed Precip Events Conditions
12:55 AM 16.7 °F - 11.5 °F 80% 30.12 in 10.0 mi SE 2.3 mph - N/A   Mostly Cloudy
1:55 AM 20.8 °F 14.4 °F 12.7 °F 71% 30.10 in 10.0 mi Variable 4.6 mph - N/A   Mostly Cloudy
3:55 AM 24.6 °F 18.8 °F 14.5 °F 66% 30.06 in 10.0 mi Variable 4.6 mph - N/A   Mostly Cloudy
4:55 AM 25.7 °F 14.6 °F 15.3 °F 65% 30.04 in 10.0 mi SSE 12.7 mph - N/A   Mostly Cloudy
5:55 AM 25.7 °F 12.3 °F 15.8 °F 66% 30.02 in 10.0 mi SSE 18.4 mph - N/A   Mostly Cloudy
6:55 AM 26.2 °F 11.2 °F 16.5 °F 67% 30.00 in 10.0 mi SSE 24.2 mph 28.8 mph N/A   Partly Cloudy
7:10 AM 26.6 °F 12.0 °F 15.8 °F 64% 30.00 in 10.0 mi SSE 23.0 mph 31.1 mph N/A Snow Light Snow Showers
7:55 AM 25.2 °F 9.8 °F 17.1 °F 71% 29.99 in 10.0 mi South 24.2 mph - N/A   Clear
8:55 AM 25.2 °F 9.8 °F 18.1 °F 75% 29.98 in 10.0 mi SSE 24.2 mph 33.4 mph N/A   Partly Cloudy
9:55 AM 26.6 °F 11.7 °F 20.1 °F 77% 29.97 in 10.0 mi SSE 24.2 mph 35.7 mph N/A   Overcast
10:55 AM 27.1 °F 12.4 °F 21.2 °F 78% 29.96 in 10.0 mi SSE 24.2 mph 31.1 mph N/A   Overcast
11:55 AM 27.3 °F 10.8 °F 22.1 °F 81% 29.95 in 10.0 mi SSE 32.2 mph 36.8 mph N/A   Partly Cloudy
12:55 PM 28.4 °F 13.5 °F 23.4 °F 81% 29.94 in 10.0 mi SSE 26.5 mph 34.5 mph N/A   Clear
1:55 PM 29.8 °F 15.5 °F 24.4 °F 80% 29.92 in 10.0 mi SSE 26.5 mph 33.4 mph N/A   Clear
2:55 PM 30.4 °F 15.7 °F 25.2 °F 81% 29.90 in 10.0 mi SSE 28.8 mph 38.0 mph N/A   Mostly Cloudy
3:55 PM 31.8 °F 16.9 °F 25.7 °F 78% 29.88 in 10.0 mi SSE 32.2 mph 39.1 mph N/A Rain Light Freezing Rain
4:16 PM 32.0 °F 17.9 °F 26.6 °F 80% 29.87 in 10.0 mi SSE 28.8 mph 36.8 mph N/A   Clear
4:55 PM 31.3 °F 17.4 °F 25.7 °F 80% 29.86 in 10.0 mi SSE 26.5 mph 42.6 mph N/A   Scattered Clouds
5:55 PM 30.6 °F 15.4 °F 25.5 °F 82% 29.84 in 10.0 mi SSE 31.1 mph 40.3 mph N/A   Mostly Cloudy
6:55 PM 30.7 °F 15.5 °F 26.1 °F 83% 29.82 in 10.0 mi SSE 32.2 mph 39.1 mph N/A   Mostly Cloudy
7:01 PM 30.2 °F 14.1 °F 26.6 °F 86% 29.82 in 10.0 mi SSE 35.7 mph 41.4 mph N/A Rain Light Freezing Rain
7:26 PM 30.2 °F 14.5 °F 26.6 °F 86% 29.81 in 10.0 mi SSE 33.4 mph 39.1 mph N/A Rain , Snow Light Freezing Rain
7:51 PM 30.2 °F 14.1 °F 26.6 °F 86% 29.80 in 6.0 mi SSE 35.7 mph 41.4 mph N/A   Light Ice Pellets
7:55 PM 30.4 °F 14.7 °F 27.1 °F 88% 29.80 in 10.0 mi SSE 33.4 mph 41.4 mph N/A Rain Light Freezing Rain
8:40 PM 32.0 °F 16.7 °F 26.6 °F 80% 29.78 in 10.0 mi SSE 34.5 mph 44.9 mph N/A   Overcast
8:55 PM 31.3 °F 16.2 °F 26.8 °F 83% 29.78 in 10.0 mi SSE 32.2 mph 42.6 mph N/A   Overcast
9:05 PM 32.0 °F 17.4 °F 26.6 °F 80% 29.78 in 10.0 mi SSE 31.1 mph 42.6 mph N/A Rain Light Rain Showers
9:55 PM 31.1 °F 16.4 °F 27.0 °F 85% 29.77 in 10.0 mi SSE 29.9 mph 40.3 mph N/A Rain Light Freezing Rain
10:50 PM 30.2 °F 14.1 °F 28.4 °F 93% 29.75 in 2.0 mi SSE 35.7 mph 42.6 mph N/A Rain Light Freezing Rain
10:55 PM 30.4 °F 14.1 °F 28.2 °F 92% 29.75 in 1.2 mi SSE 36.8 mph 44.9 mph N/A Rain Light Freezing Rain
11:20 PM 30.2 °F 14.5 °F 28.4 °F 93% 29.75 in 0.5 mi SSE 33.4 mph 42.6 mph N/A Snow Snow Showers
11:45 PM 30.2 °F 14.1 °F 28.4 °F 93% 29.74 in 0.5 mi SSE 35.7 mph 41.4 mph N/A Snow Snow
11:55 PM 29.1 °F 12.8 °F 29.1 °F 100% 29.74 in 0.8 mi SSE 34.5 mph 41.4 mph N/A Snow Snow